When you browse on this site, cookies collect data to enhance your experience and personalize the content and advertising you see.
Visit our Privacy Policy to learn more. By continuing to use the site, you agree to this use of cookies and data.
  • In United Kingdom
  • List of Countries
  • For 7 days
  • Water Temperature
  • Weather Map
  • Weather Widgets
  • user-avatar
    Login

    Hourly Weather Pykivs'ka Slobidka

    Today, 23 August, Friday

    Time Temperature Precipitation Wind Pressure Humidity
    00:00 +16°C° 0 mm 3 mps 741 mmHg 90%
    01:00 +16°C° 0 mm 3 mps 741 mmHg 91%
    02:00 +14°C° 0 mm 3 mps 741 mmHg 93%
    03:00 +14°C° 0 mm 3 mps 741 mmHg 94%
    04:00 +14°C° 0 mm 3 mps 741 mmHg 95%
    05:00 +13°C° 0 mm 3 mps 740 mmHg 96%
    06:00 +14°C° 0 mm 3 mps 741 mmHg 91%
    07:00 +17°C° 0 mm 3 mps 741 mmHg 86%
    08:00 +18°C° 0 mm 4 mps 741 mmHg 80%
    09:00 +19°C° 0 mm 4 mps 741 mmHg 74%
    10:00 +21°C° 0 mm 4 mps 741 mmHg 68%
    11:00 +23°C° 0 mm 4 mps 741 mmHg 61%
    12:00 +23°C° 0.1 mm 4 mps 741 mmHg 60%
    13:00 +25°C° 0.1 mm 4 mps 741 mmHg 60%
    14:00 +25°C° 0 mm 4 mps 741 mmHg 60%
    15:00 +23°C° 0 mm 4 mps 741 mmHg 60%
    16:00 +23°C° 0 mm 4 mps 741 mmHg 61%
    17:00 +23°C° 0 mm 4 mps 741 mmHg 62%
    18:00 +21°C° 0 mm 4 mps 741 mmHg 68%
    19:00 +19°C° 0 mm 3 mps 741 mmHg 74%
    20:00 +18°C° 0 mm 3 mps 741 mmHg 80%
    21:00 +17°C° 0 mm 3 mps 741 mmHg 82%
    22:00 +16°C° 0 mm 3 mps 741 mmHg 83%
    23:00 +16°C° 0 mm 2 mps 740 mmHg 85%

    Tomorrow, 24 August, Saturday

    Time Temperature Precipitation Wind Pressure Humidity
    00:00 +15°C° 0 mm 2 mps 740 mmHg 86%
    01:00 +15°C° 0 mm 2 mps 741 mmHg 88%
    02:00 +14°C° 0 mm 2 mps 741 mmHg 90%
    03:00 +14°C° 0 mm 2 mps 741 mmHg 91%
    04:00 +14°C° 0 mm 2 mps 741 mmHg 93%
    05:00 +14°C° 0 mm 2 mps 741 mmHg 94%
    06:00 +14°C° 0 mm 3 mps 741 mmHg 89%
    07:00 +17°C° 0 mm 3 mps 741 mmHg 84%
    08:00 +18°C° 0 mm 3 mps 741 mmHg 79%
    09:00 +20°C° 0 mm 3 mps 741 mmHg 72%
    10:00 +22°C° 0 mm 3 mps 741 mmHg 65%
    11:00 +25°C° 0 mm 3 mps 741 mmHg 58%
    12:00 +25°C° 0 mm 3 mps 741 mmHg 55%
    13:00 +26°C° 0 mm 3 mps 740 mmHg 52%
    14:00 +27°C° 0 mm 3 mps 740 mmHg 49%
    15:00 +27°C° 0 mm 3 mps 740 mmHg 51%
    16:00 +26°C° 0 mm 3 mps 740 mmHg 52%
    17:00 +26°C° 0 mm 3 mps 739 mmHg 54%
    18:00 +24°C° 0 mm 3 mps 739 mmHg 61%
    19:00 +21°C° 0 mm 3 mps 739 mmHg 69%
    20:00 +19°C° 0 mm 3 mps 739 mmHg 76%
    21:00 +18°C° 0 mm 3 mps 739 mmHg 77%
    22:00 +18°C° 0 mm 3 mps 740 mmHg 77%
    23:00 +17°C° 0 mm 3 mps 740 mmHg 77%

    Day after tomorrow, 25 August, Sunday

    Time Temperature Precipitation Wind Pressure Humidity
    00:00 +17°C° 0 mm 3 mps 740 mmHg 77%
    01:00 +16°C° 0 mm 2 mps 740 mmHg 76%
    02:00 +16°C° 0 mm 2 mps 740 mmHg 76%
    03:00 +15°C° 0 mm 2 mps 740 mmHg 76%
    04:00 +14°C° 0 mm 3 mps 739 mmHg 75%
    05:00 +14°C° 0 mm 3 mps 739 mmHg 75%
    06:00 +16°C° 0 mm 3 mps 740 mmHg 71%
    07:00 +18°C° 0 mm 3 mps 740 mmHg 68%
    08:00 +19°C° 0 mm 3 mps 740 mmHg 64%
    09:00 +21°C° 0 mm 3 mps 740 mmHg 58%
    10:00 +24°C° 0 mm 3 mps 740 mmHg 53%
    11:00 +26°C° 0 mm 4 mps 741 mmHg 48%
    12:00 +26°C° 0 mm 3 mps 740 mmHg 46%
    13:00 +27°C° 0 mm 3 mps 740 mmHg 44%
    14:00 +27°C° 0 mm 3 mps 740 mmHg 42%
    15:00 +27°C° 0 mm 3 mps 740 mmHg 44%
    16:00 +26°C° 0 mm 3 mps 740 mmHg 46%
    17:00 +26°C° 0 mm 3 mps 739 mmHg 48%
    18:00 +24°C° 0 mm 3 mps 739 mmHg 51%
    19:00 +21°C° 0 mm 3 mps 739 mmHg 53%
    20:00 +19°C° 0 mm 3 mps 739 mmHg 56%
    21:00 +18°C° 0 mm 3 mps 740 mmHg 59%
    22:00 +17°C° 0 mm 2 mps 740 mmHg 62%
    23:00 +17°C° 0 mm 2 mps 740 mmHg 64%

    26 August, Monday

    Time Temperature Precipitation Wind Pressure Humidity
    00:00 +16°C° 0 mm 2 mps 740 mmHg 68%
    01:00 +16°C° 0 mm 2 mps 740 mmHg 71%
    02:00 +14°C° 0 mm 3 mps 740 mmHg 75%
    03:00 +15°C° 0 mm 2 mps 740 mmHg 78%
    04:00 +15°C° 0 mm 2 mps 740 mmHg 82%
    05:00 +14°C° 0 mm 2 mps 740 mmHg 85%
    06:00 +16°C° 0 mm 2 mps 740 mmHg 80%
    07:00 +18°C° 0 mm 3 mps 740 mmHg 75%
    08:00 +20°C° 0 mm 3 mps 740 mmHg 70%
    09:00 +22°C° 0 mm 3 mps 740 mmHg 63%
    10:00 +25°C° 0 mm 3 mps 740 mmHg 57%
    11:00 +26°C° 0 mm 3 mps 741 mmHg 50%
    12:00 +27°C° 0 mm 3 mps 740 mmHg 48%
    13:00 +28°C° 0 mm 3 mps 740 mmHg 45%
    14:00 +28°C° 0 mm 3 mps 740 mmHg 43%
    15:00 +28°C° 0 mm 3 mps 740 mmHg 44%
    16:00 +28°C° 0 mm 3 mps 739 mmHg 46%
    17:00 +28°C° 0 mm 3 mps 739 mmHg 47%
    18:00 +25°C° 0 mm 3 mps 739 mmHg 53%
    19:00 +22°C° 0 mm 3 mps 739 mmHg 59%
    20:00 +20°C° 0 mm 4 mps 739 mmHg 64%
    21:00 +19°C° 0 mm 3 mps 739 mmHg 65%
    22:00 +19°C° 0 mm 3 mps 739 mmHg 65%
    23:00 +18°C° 0 mm 3 mps 739 mmHg 65%

    27 August, Tuesday

    Time Temperature Precipitation Wind Pressure Humidity
    00:00 +17°C° 0 mm 3 mps 739 mmHg 66%
    01:00 +17°C° 0 mm 2 mps 738 mmHg 67%
    02:00 +16°C° 0 mm 2 mps 738 mmHg 67%
    03:00 +16°C° 0 mm 2 mps 738 mmHg 67%
    04:00 +16°C° 0 mm 2 mps 738 mmHg 68%
    05:00 +15°C° 0 mm 1 mps 739 mmHg 68%
    06:00 +18°C° 0 mm 1 mps 739 mmHg 63%
    07:00 +20°C° 0 mm 1 mps 739 mmHg 58%
    08:00 +22°C° 0 mm 1 mps 739 mmHg 53%
    09:00 +23°C° 0 mm 1 mps 739 mmHg 50%
    10:00 +25°C° 0 mm 1 mps 739 mmHg 46%
    11:00 +27°C° 0 mm 1 mps 739 mmHg 42%
    12:00 +28°C° 0 mm 1 mps 739 mmHg 40%
    13:00 +28°C° 0 mm 2 mps 739 mmHg 38%
    14:00 +29°C° 0 mm 2 mps 739 mmHg 37%
    15:00 +28°C° 0 mm 2 mps 738 mmHg 39%
    16:00 +28°C° 0 mm 2 mps 738 mmHg 41%
    17:00 +28°C° 0 mm 2 mps 738 mmHg 43%
    18:00 +26°C° 0 mm 2 mps 738 mmHg 48%
    19:00 +23°C° 0 mm 2 mps 738 mmHg 54%
    20:00 +20°C° 0 mm 2 mps 738 mmHg 60%
    21:00 +19°C° 0 mm 2 mps 738 mmHg 62%
    22:00 +18°C° 0 mm 2 mps 738 mmHg 63%
    23:00 +19°C° 0 mm 1 mps 738 mmHg 65%

    28 August, Wednesday

    Time Temperature Precipitation Wind Pressure Humidity
    00:00 +18°C° 0 mm 1 mps 738 mmHg 67%
    01:00 +18°C° 0 mm 1 mps 738 mmHg 69%
    02:00 +16°C° 0 mm 1 mps 738 mmHg 71%
    03:00 +16°C° 0 mm 1 mps 738 mmHg 73%
    04:00 +16°C° 0 mm 1 mps 738 mmHg 75%
    05:00 +15°C° 0 mm 1 mps 738 mmHg 77%
    06:00 +18°C° 0 mm 1 mps 738 mmHg 73%
    07:00 +20°C° 0 mm 1 mps 738 mmHg 68%
    08:00 +22°C° 0 mm 1 mps 738 mmHg 63%
    09:00 +23°C° 0 mm 1 mps 738 mmHg 58%
    10:00 +25°C° 0 mm 2 mps 738 mmHg 53%
    11:00 +27°C° 0 mm 2 mps 738 mmHg 48%
    12:00 +27°C° 0 mm 2 mps 738 mmHg 46%
    13:00 +28°C° 0 mm 2 mps 738 mmHg 43%
    14:00 +28°C° 0 mm 2 mps 737 mmHg 41%
    15:00 +28°C° 0 mm 2 mps 737 mmHg 44%
    16:00 +28°C° 0 mm 3 mps 737 mmHg 46%
    17:00 +27°C° 0 mm 3 mps 737 mmHg 48%
    18:00 +25°C° 0 mm 3 mps 737 mmHg 55%
    19:00 +22°C° 0 mm 3 mps 736 mmHg 62%
    20:00 +20°C° 0 mm 3 mps 736 mmHg 69%
    21:00 +19°C° 0 mm 3 mps 736 mmHg 71%
    22:00 +18°C° 0 mm 3 mps 737 mmHg 72%
    23:00 +17°C° 0 mm 3 mps 737 mmHg 73%
    Show more